When you browse on this site, cookies collect data to enhance your experience and personalize the content and advertising you see.
Visit our Privacy Policy to learn more. By continuing to use the site, you agree to this use of cookies and data.
  • In France
  • List of Countries
  • For 7 days
  • Water Temperature
  • Satellite Maps
  • Weather Map
  • Weather Widgets
  • user-avatar
    Login

    Hourly Weather Golden Sands

    Today, 27 May, Monday

    Time Temperature Precipitation Wind Pressure Humidity
    00:00 +19°C° 0 mm 1 mps 762 mmHg 80%
    01:00 +19°C° 0 mm 1 mps 762 mmHg 80%
    02:00 +18°C° 0 mm 1 mps 761 mmHg 80%
    03:00 +18°C° 0 mm 1 mps 761 mmHg 80%
    04:00 +18°C° 0 mm 1 mps 761 mmHg 80%
    05:00 +18°C° 0 mm 1 mps 761 mmHg 80%
    06:00 +20°C° 0 mm 1 mps 762 mmHg 77%
    07:00 +21°C° 0 mm 1 mps 762 mmHg 73%
    08:00 +21°C° 0 mm 2 mps 762 mmHg 70%
    09:00 +23°C° 0 mm 2 mps 762 mmHg 68%
    10:00 +22°C° 0 mm 3 mps 762 mmHg 66%
    11:00 +24°C° 0 mm 3 mps 762 mmHg 64%
    12:00 +24°C° 0 mm 3 mps 762 mmHg 65%
    13:00 +24°C° 0 mm 3 mps 762 mmHg 65%
    14:00 +23°C° 0 mm 4 mps 761 mmHg 65%
    15:00 +22°C° 0 mm 4 mps 761 mmHg 67%
    16:00 +22°C° 0 mm 4 mps 761 mmHg 69%
    17:00 +21°C° 0 mm 4 mps 761 mmHg 71%
    18:00 +20°C° 0 mm 4 mps 761 mmHg 76%
    19:00 +19°C° 0 mm 3 mps 761 mmHg 81%
    20:00 +18°C° 0 mm 3 mps 761 mmHg 86%
    21:00 +18°C° 0 mm 3 mps 761 mmHg 86%
    22:00 +17°C° 0 mm 3 mps 761 mmHg 87%
    23:00 +17°C° 0 mm 3 mps 760 mmHg 88%

    Tomorrow, 28 May, Tuesday

    Time Temperature Precipitation Wind Pressure Humidity
    00:00 +17°C° 0 mm 3 mps 760 mmHg 89%
    01:00 +17°C° 0 mm 3 mps 760 mmHg 89%
    02:00 +17°C° 0 mm 3 mps 760 mmHg 90%
    03:00 +17°C° 0 mm 3 mps 759 mmHg 90%
    04:00 +17°C° 0 mm 3 mps 759 mmHg 90%
    05:00 +17°C° 0 mm 3 mps 759 mmHg 90%
    06:00 +18°C° 0 mm 3 mps 759 mmHg 86%
    07:00 +19°C° 0 mm 3 mps 759 mmHg 83%
    08:00 +20°C° 0 mm 3 mps 758 mmHg 79%
    09:00 +21°C° 0 mm 3 mps 758 mmHg 76%
    10:00 +22°C° 0 mm 3 mps 758 mmHg 73%
    11:00 +22°C° 0 mm 3 mps 758 mmHg 70%
    12:00 +24°C° 0 mm 3 mps 758 mmHg 69%
    13:00 +24°C° 0 mm 3 mps 758 mmHg 68%
    14:00 +24°C° 0 mm 3 mps 757 mmHg 67%
    15:00 +23°C° 0 mm 4 mps 757 mmHg 69%
    16:00 +22°C° 0 mm 4 mps 756 mmHg 70%
    17:00 +22°C° 0 mm 4 mps 756 mmHg 72%
    18:00 +21°C° 0 mm 4 mps 756 mmHg 75%
    19:00 +20°C° 0 mm 5 mps 756 mmHg 79%
    20:00 +19°C° 0 mm 5 mps 756 mmHg 82%
    21:00 +19°C° 0 mm 5 mps 756 mmHg 83%
    22:00 +19°C° 0 mm 5 mps 756 mmHg 84%
    23:00 +19°C° 0 mm 5 mps 756 mmHg 86%

    Day after tomorrow, 29 May, Wednesday

    Time Temperature Precipitation Wind Pressure Humidity
    00:00 +19°C° 0.1 mm 5 mps 756 mmHg 85%
    01:00 +19°C° 0.1 mm 5 mps 756 mmHg 83%
    02:00 +19°C° 0.1 mm 5 mps 756 mmHg 82%
    03:00 +17°C° 0 mm 5 mps 756 mmHg 81%
    04:00 +17°C° 0 mm 5 mps 756 mmHg 80%
    05:00 +17°C° 0 mm 5 mps 756 mmHg 79%
    06:00 +19°C° 0 mm 5 mps 756 mmHg 77%
    07:00 +20°C° 0 mm 5 mps 756 mmHg 75%
    08:00 +21°C° 0 mm 4 mps 756 mmHg 72%
    09:00 +22°C° 0 mm 4 mps 757 mmHg 69%
    10:00 +25°C° 0 mm 4 mps 757 mmHg 66%
    11:00 +26°C° 0 mm 4 mps 757 mmHg 63%
    12:00 +27°C° 0 mm 5 mps 757 mmHg 62%
    13:00 +27°C° 0 mm 5 mps 757 mmHg 61%
    14:00 +28°C° 0 mm 5 mps 757 mmHg 60%
    15:00 +27°C° 0 mm 5 mps 757 mmHg 62%
    16:00 +26°C° 0 mm 5 mps 756 mmHg 65%
    17:00 +25°C° 0 mm 5 mps 756 mmHg 67%
    18:00 +23°C° 0 mm 5 mps 756 mmHg 69%
    19:00 +22°C° 0 mm 5 mps 757 mmHg 72%
    20:00 +21°C° 0 mm 4 mps 757 mmHg 74%
    21:00 +21°C° 0 mm 4 mps 757 mmHg 74%
    22:00 +21°C° 0 mm 4 mps 757 mmHg 74%
    23:00 +21°C° 0 mm 3 mps 758 mmHg 74%

    30 May, Thursday

    Time Temperature Precipitation Wind Pressure Humidity
    00:00 +20°C° 0 mm 3 mps 758 mmHg 76%
    01:00 +20°C° 0 mm 3 mps 758 mmHg 77%
    02:00 +20°C° 0 mm 3 mps 757 mmHg 78%
    03:00 +19°C° 0 mm 3 mps 758 mmHg 79%
    04:00 +19°C° 0 mm 3 mps 758 mmHg 80%
    05:00 +18°C° 0 mm 3 mps 758 mmHg 81%
    06:00 +20°C° 0 mm 2 mps 758 mmHg 77%
    07:00 +21°C° 0 mm 2 mps 758 mmHg 73%
    08:00 +23°C° 0 mm 1 mps 758 mmHg 69%
    09:00 +24°C° 0 mm 2 mps 758 mmHg 66%
    10:00 +25°C° 0 mm 2 mps 758 mmHg 64%
    11:00 +26°C° 0 mm 2 mps 758 mmHg 61%
    12:00 +26°C° 0 mm 3 mps 758 mmHg 62%
    13:00 +26°C° 0 mm 4 mps 758 mmHg 63%
    14:00 +26°C° 0 mm 4 mps 758 mmHg 64%
    15:00 +25°C° 0 mm 4 mps 758 mmHg 66%
    16:00 +23°C° 0 mm 4 mps 757 mmHg 68%
    17:00 +22°C° 0 mm 4 mps 757 mmHg 69%
    18:00 +21°C° 0 mm 4 mps 757 mmHg 73%
    19:00 +20°C° 0 mm 3 mps 757 mmHg 76%
    20:00 +19°C° 0 mm 3 mps 758 mmHg 79%
    21:00 +19°C° 0 mm 3 mps 758 mmHg 81%
    22:00 +19°C° 0 mm 3 mps 758 mmHg 82%
    23:00 +19°C° 0 mm 4 mps 758 mmHg 84%

    31 May, Friday

    Time Temperature Precipitation Wind Pressure Humidity
    00:00 +19°C° 0 mm 3 mps 758 mmHg 85%
    01:00 +19°C° 0 mm 3 mps 757 mmHg 86%
    02:00 +19°C° 0 mm 3 mps 757 mmHg 87%
    03:00 +19°C° 0 mm 2 mps 757 mmHg 87%
    04:00 +19°C° 0 mm 2 mps 757 mmHg 87%
    05:00 +18°C° 0 mm 2 mps 757 mmHg 87%
    06:00 +20°C° 0 mm 2 mps 757 mmHg 83%
    07:00 +22°C° 0 mm 1 mps 757 mmHg 80%
    08:00 +23°C° 0 mm 1 mps 757 mmHg 76%
    09:00 +24°C° 0.1 mm 2 mps 757 mmHg 73%
    10:00 +24°C° 0.1 mm 2 mps 757 mmHg 69%
    11:00 +25°C° 0.1 mm 3 mps 757 mmHg 66%
    12:00 +25°C° 0 mm 3 mps 757 mmHg 65%
    13:00 +25°C° 0 mm 3 mps 757 mmHg 64%
    14:00 +26°C° 0 mm 3 mps 757 mmHg 62%
    15:00 +25°C° 0 mm 3 mps 757 mmHg 64%
    16:00 +25°C° 0 mm 3 mps 756 mmHg 65%
    17:00 +24°C° 0 mm 3 mps 756 mmHg 66%
    18:00 +23°C° 0 mm 2 mps 756 mmHg 71%
    19:00 +21°C° 0 mm 1 mps 756 mmHg 76%
    20:00 +20°C° 0 mm 1 mps 756 mmHg 82%
    21:00 +20°C° 0 mm 1 mps 756 mmHg 81%
    22:00 +19°C° 0 mm 2 mps 756 mmHg 80%
    23:00 +19°C° 0 mm 2 mps 756 mmHg 79%

    1 June, Saturday

    Time Temperature Precipitation Wind Pressure Humidity
    00:00 +19°C° 0 mm 3 mps 756 mmHg 83%
    01:00 +18°C° 0 mm 4 mps 756 mmHg 87%
    02:00 +17°C° 0 mm 5 mps 756 mmHg 91%
    03:00 +17°C° 0 mm 5 mps 756 mmHg 90%
    04:00 +16°C° 0 mm 5 mps 756 mmHg 89%
    05:00 +16°C° 0 mm 6 mps 756 mmHg 88%
    06:00 +17°C° 0 mm 6 mps 756 mmHg 84%
    07:00 +19°C° 0 mm 5 mps 756 mmHg 80%
    08:00 +20°C° 0 mm 5 mps 756 mmHg 76%
    09:00 +22°C° 0 mm 5 mps 756 mmHg 71%
    10:00 +23°C° 0 mm 4 mps 756 mmHg 67%
    11:00 +26°C° 0 mm 3 mps 756 mmHg 63%
    12:00 +26°C° 0 mm 2 mps 756 mmHg 61%
    13:00 +26°C° 0 mm 2 mps 755 mmHg 59%
    14:00 +27°C° 0 mm 2 mps 755 mmHg 58%
    15:00 +26°C° 0 mm 2 mps 755 mmHg 61%
    16:00 +26°C° 0 mm 3 mps 755 mmHg 64%
    17:00 +25°C° 0 mm 4 mps 755 mmHg 67%
    18:00 +23°C° 0 mm 4 mps 755 mmHg 70%
    19:00 +22°C° 0 mm 3 mps 755 mmHg 74%
    20:00 +21°C° 0 mm 3 mps 755 mmHg 77%
    21:00 +20°C° 0.2 mm 3 mps 755 mmHg 79%
    22:00 +20°C° 0.2 mm 3 mps 755 mmHg 82%
    23:00 +19°C° 0.2 mm 3 mps 755 mmHg 84%
    Show more